Hourly Data Report for July 17, 2021

PRINCE RUPERT
BRITISH COLUMBIA
Current Station Operator: NAVCAN

54°17'10.000" N
130°26'41.000" W
35.40 m
1066482
71022
YPR

Download Data

Hourly Data (July 2021)
Hourly Data Report for July 17, 2021
TIME
LST
Temp Definition
°C
Dew Point Definition
°C
Rel Hum Definition
%
Precip. Amount Definition
mm

Wind Dir Definition
10's deg

Wind Spd Definition
km/h
Visibility Definition
km
Stn Press Definition
kPa
Hmdx Definition


Wind Chill Definition


Weather Definition


00:00 12.0 11.4 96 0.2 6 8 16.1 100.86     Rain
01:00 11.9 11.3 96 0.0 6 9 16.1 100.83     Rain
02:00 11.5 10.9 96 0.0   0 16.1 100.83     LegendNANA
03:00 11.8 11.3 97 0.0 LegendMM 4 16.1 100.83     Rain
04:00 11.6 11.1 97 0.0   0 16.1 100.84     Rain
05:00 11.6 11.1 97 0.2 17 8 16.1 100.92     LegendNANA
06:00 12.1 11.5 96 0.2 6 8 16.1 100.95     LegendNANA
07:00 13.2 12.3 94 0.0 16 5 16.1 101.01     LegendNANA
08:00 14.1 12.3 89 0.0 14 13 16.1 101.05     LegendNANA
09:00 15.1 11.7 80 0.0 18 11 16.1 101.12     LegendNANA
10:00 15.9 11.6 75 0.0 17 13 16.1 101.16     LegendNANA
11:00 17.0 11.0 68 0.0 15 15 16.1 101.19     LegendNANA
12:00 17.8 10.8 63 0.0 17 17 16.1 101.22     LegendNANA
13:00 17.1 11.0 67 0.0 15 13 16.1 101.26     LegendNANA
14:00 15.5 11.5 77 0.0 15 11 16.1 101.30     LegendNANA
15:00 16.1 11.5 74 0.0 15 15 16.1 101.33     LegendNANA
16:00 17.2 10.6 65 0.0 15 11 16.1 101.34     LegendNANA
17:00 16.9 10.4 65 0.0 15 13 16.1 101.38     LegendNANA
18:00 17.9 10.5 62 0.0 15 9 16.1 101.40     LegendNANA
19:00 16.5 10.7 68 0.0 15 13 16.1 101.44     LegendNANA
20:00 15.3 10.2 71 0.0 16 8 16.1 101.47     LegendNANA
21:00 14.7 9.8 72 0.0 14 13 16.1 101.49     LegendNANA
22:00 14.4 9.7 73 0.0 13 8 16.1 101.53     LegendNANA
23:00 14.3 9.9 75 0.0 13 9 16.1 101.56     LegendNANA

Notes on Data Quality.

Legend

  • E = Estimated
  • M = Missing
  • NA = Not Available*
  • [empty] = Indicates an unobserved value
Date modified: